[[{"header":{"parameterUnit":"m.s-1","parameterCategory":1,"la1":30.2991,"la2":30.254,"lo1":-89.0895,"lo2":-89.0444,"dy":0.0017,"dx":0.0017,"nx":28,"ny":28,"refTime":"2023-09-14T09:00:00:Z","depth":0,"parameterNumber":2,"parameterNumberName":"U-component_of_WINDS"},"data":[0,0,0,0,0,0,0,0,0,0,0,0,0,0,0,0,0,0,0,0,0,0,0,0,0,0,0,0,0,0,0,0,0,0,0,0,0,0,0,0,0,0,0,0,0,0,0,0,0,0,0,0,0,0,0,0,0,0,-0.6955,-0.6954,0,-0.6817,-0.6816,-0.6814,-0.6771,-0.6772,-0.6772,-0.6773,-0.6627,-0.6623,-0.6618,0,0,0,0,0,0,0,0,0,0,0,0,0,-0.7178,-0.7174,-0.6956,-0.6954,-0.6952,-0.6817,-0.6816,-0.6814,-0.6771,-0.6772,-0.6772,-0.6773,-0.6629,-0.6623,-0.6618,0,0,0,0,0,0,0,0,0,0,0,0,0,-0.7065,-0.7173,-0.6956,-0.6915,-0.691,-0.6818,-0.6815,-0.6813,-0.6771,-0.6772,-0.6773,-0.6774,-0.6631,-0.6624,-0.6617,-0.6555,0,0,-0.6597,-0.6594,0,0,0,0,0,0,0,0,-0.7071,-0.7057,-0.6922,-0.6917,-0.6911,-0.6812,-0.6841,-0.6727,-0.677,-0.6823,-0.6773,-0.6774,-0.6688,-0.6676,-0.6648,-0.6549,-0.6542,-0.6596,-0.6592,-0.6589,-0.6587,0,0,0,0,0,0,0,-0.7079,-0.7062,-0.6901,-0.692,-0.6914,-0.6902,-0.6887,-0.6819,-0.6751,-0.6819,-0.6815,-0.68,-0.6685,-0.6655,-0.6644,-0.654,-0.6596,-0.659,-0.6586,-0.6583,-0.6382,-0.6381,0,0,0,0,0,0,-0.7095,-0.7069,-0.6905,-0.6897,-0.6996,-0.6897,-0.688,-0.6843,-0.6752,-0.6739,-0.6799,-0.6798,-0.6666,-0.6652,-0.6639,-0.656,-0.6589,-0.6583,-0.6579,-0.6383,-0.6382,-0.638,0,0,0,0,0,0,-0.71,-0.708,-0.6911,-0.6982,-0.6959,-0.6892,-0.6851,-0.684,-0.681,-0.6737,-0.6725,-0.6781,-0.6666,-0.6649,-0.6577,-0.6555,-0.658,-0.6574,-0.6385,-0.6383,-0.6381,-0.6403,0,0,0,0,0,0,-0.7106,-0.7082,-0.7059,-0.6982,-0.6956,-0.6852,-0.6849,-0.6836,-0.6799,-0.6796,-0.6717,-0.6705,-0.6666,-0.6587,-0.657,-0.6546,-0.6568,-0.6387,-0.6384,-0.6382,-0.6403,-0.6402,-0.64,0,0,0,0,0,-0.7114,-0.707,-0.7058,-0.7039,-0.6926,-0.6851,-0.6836,-0.6793,-0.6797,-0.6772,-0.6726,-0.6707,-0.656,-0.658,-0.656,-0.6534,-0.6388,-0.6385,-0.6382,-0.6404,-0.6402,-0.64,0,0,0,0,0,0,-0.7146,-0.7059,-0.7045,-0.6975,-0.6921,-0.6844,-0.6811,-0.6792,-0.6734,-0.6734,-0.6682,-0.6665,-0.6596,-0.6558,-0.6582,-0.6469,-0.6473,-0.6466,-0.6497,-0.6494,-0.6492,-0.6503,-0.6563,0,0,0,0,0,-0.7145,-0.7092,-0.7019,-0.6964,-0.6938,-0.688,-0.6845,-0.6817,-0.6758,-0.6734,-0.6683,-0.6625,-0.6566,-0.6527,-0.6469,-0.6398,-0.6379,-0.637,-0.6368,-0.6367,-0.6361,-0.632,-0.6315,-0.6371,-0.6371,-0.6371,0,0,-0.7141,-0.7088,-0.7058,-0.6969,-0.6924,-0.6869,-0.686,-0.6803,-0.6762,-0.6725,-0.6655,-0.6614,-0.6546,-0.6475,-0.644,-0.644,-0.6342,-0.6363,-0.6363,-0.6358,-0.6316,-0.6311,-0.6307,-0.6369,-0.6369,-0.6369,0,0,-0.7108,-0.7063,-0.7012,-0.6967,-0.6898,-0.686,-0.6848,-0.6773,-0.6746,-0.6674,-0.6645,-0.6595,-0.6494,-0.6447,-0.6409,-0.6358,-0.6338,-0.634,-0.6331,-0.6291,-0.6287,-0.6282,-0.6264,-0.6257,-0.6335,-0.6335,-0.6335,0,-0.7113,-0.7031,-0.6988,-0.6932,-0.6894,-0.6859,-0.6806,-0.6764,-0.668,-0.6653,-0.6655,-0.6527,-0.6479,-0.6395,-0.6383,-0.6354,-0.6337,-0.6349,-0.6291,-0.6286,-0.6282,-0.6263,-0.6256,-0.6335,-0.6335,-0.6335,-0.6335,0,-0.704,-0.6983,-0.695,-0.6871,-0.6828,-0.6775,-0.6722,-0.6684,-0.6659,-0.662,-0.6547,-0.6488,-0.6417,-0.6395,-0.6369,-0.6307,-0.6309,-0.6302,-0.6304,-0.6278,-0.6259,-0.6252,-0.6336,-0.6336,-0.6336,-0.6336,0,0,-0.7022,-0.692,-0.6908,-0.6872,-0.6794,-0.6749,-0.6693,-0.6624,-0.6592,-0.6535,-0.6486,-0.6402,-0.6394,-0.6352,-0.6321,-0.6286,-0.6248,-0.6282,-0.628,-0.6278,-0.6175,-0.6182,-0.6174,-0.6235,-0.6234,-0.6232,-0.6181,0,-0.6979,-0.6879,-0.6838,-0.6757,-0.6704,-0.667,-0.662,-0.6567,-0.6529,-0.6477,-0.6434,-0.6375,-0.637,-0.6344,-0.6308,-0.6261,-0.6227,-0.6264,-0.6188,-0.6186,-0.6206,-0.6164,-0.6171,-0.6125,-0.6173,-0.6172,-0.6171,0,-0.6915,-0.6859,-0.6772,-0.67,-0.6677,-0.6634,-0.6567,-0.6519,-0.6456,-0.6431,-0.6384,-0.6355,-0.6293,-0.6301,-0.6215,-0.6241,-0.6207,-0.6179,-0.6176,-0.6167,-0.6177,-0.6154,-0.611,-0.6103,-0.616,-0.616,-0.6161,0,-0.6911,-0.6813,-0.6749,-0.6718,-0.6633,-0.6603,-0.6566,-0.6505,-0.6466,-0.6408,-0.6382,-0.6317,-0.6281,-0.623,-0.6184,-0.6194,-0.6102,-0.6105,-0.6078,-0.6079,-0.606,-0.6062,-0.601,-0.6039,-0.6039,-0.6039,-0.6039,0,-0.6866,-0.6815,-0.6746,-0.6706,-0.6647,-0.66,-0.6542,-0.6502,-0.6448,-0.6399,-0.6365,-0.6319,-0.6261,-0.6208,-0.6171,-0.6105,-0.6089,-0.6066,-0.6057,-0.6069,-0.6072,-0.6046,-0.6048,-0.6037,-0.6038,-0.6038,-0.6039,0,-0.6852,-0.6803,-0.6731,-0.6656,-0.6636,-0.6596,-0.6531,-0.6491,-0.6451,-0.6389,-0.6372,-0.6309,-0.6245,-0.6194,-0.6109,-0.6084,-0.6015,-0.6004,-0.6036,-0.6031,-0.6007,-0.601,-0.5936,-0.5923,-0.5962,-0.5961,-0.5961,0,-0.6827,-0.6786,-0.6708,-0.6673,-0.6636,-0.6581,-0.6542,-0.6493,-0.6453,-0.6379,-0.6347,-0.628,-0.6225,-0.6123,-0.6069,-0.6004,-0.5991,-0.597,-0.5981,-0.5995,-0.5991,-0.5994,-0.5989,-0.5969,-0.5968,-0.5968,-0.5968,0,-0.6787,-0.6765,-0.6711,-0.6647,-0.6601,-0.6549,-0.6495,-0.6468,-0.641,-0.6366,-0.63,-0.6257,-0.6171,-0.6105,-0.6035,-0.5994,-0.5971,-0.5965,-0.5955,-0.5967,-0.5987,-0.5976,-0.6033,-0.5967,-0.5967,-0.5967,-0.5967,-0.5967,-0.6766,-0.6729,-0.6667,-0.6607,-0.6562,-0.6513,-0.6471,-0.6426,-0.6371,-0.6298,-0.6272,-0.6205,-0.6142,-0.6045,-0.6005,-0.595,-0.5948,-0.5934,-0.5931,-0.5928,-0.5929,-0.5996,-0.5937,-0.5937,-0.5937,-0.5937,-0.5937,0,-0.6725,-0.6684,-0.6629,-0.6556,-0.6508,-0.6491,-0.6431,-0.6392,-0.6333,-0.6277,-0.6223,-0.6147,-0.6083,-0.6024,-0.5957,-0.5924,-0.5912,-0.5908,-0.591,-0.5901,-0.5935,-0.595,-0.5919,-0.5919,-0.5919,-0.5919,-0.5919,-0.5919,-0.6698,-0.6633,-0.6604,-0.6516,-0.6475,-0.6409,-0.6376,-0.633,-0.6285,-0.6203,-0.615,-0.6112,-0.6054,-0.5982,-0.5922,-0.5906,-0.5883,-0.5882,-0.5863,-0.5896,-0.5898,-0.5901,-0.5915,-0.5877,-0.5877,-0.5834,-0.5834,-0.5833]},{"header":{"parameterUnit":"m.s-1","parameterCategory":1,"la1":30.2991,"la2":30.254,"lo1":-89.0895,"lo2":-89.0444,"dy":0.0017,"dx":0.0017,"nx":28,"ny":28,"refTime":"2023-09-14T09:00:00:Z","depth":0,"parameterNumber":3,"parameterNumberName":"V-component_of_WINDS"},"data":[0,0,0,0,0,0,0,0,0,0,0,0,0,0,0,0,0,0,0,0,0,0,0,0,0,0,0,0,0,0,0,0,0,0,0,0,0,0,0,0,0,0,0,0,0,0,0,0,0,0,0,0,0,0,0,0,0,0,-0.2433,-0.2433,0,-0.2472,-0.2472,-0.2473,-0.2544,-0.2546,-0.2547,-0.2548,-0.2586,-0.2586,-0.2585,0,0,0,0,0,0,0,0,0,0,0,0,0,-0.2418,-0.2418,-0.2433,-0.2433,-0.2434,-0.2472,-0.2472,-0.2473,-0.2544,-0.2546,-0.2548,-0.2549,-0.2586,-0.2586,-0.2585,0,0,0,0,0,0,0,0,0,0,0,0,0,-0.2437,-0.2418,-0.2433,-0.2474,-0.2478,-0.2472,-0.2472,-0.2473,-0.2544,-0.2546,-0.2548,-0.255,-0.2586,-0.2586,-0.2585,-0.2541,0,0,-0.2584,-0.2584,0,0,0,0,0,0,0,0,-0.2436,-0.2438,-0.2468,-0.2471,-0.2476,-0.2506,-0.2481,-0.2496,-0.2543,-0.2519,-0.2549,-0.2551,-0.2557,-0.2559,-0.2562,-0.2543,-0.2544,-0.2584,-0.2584,-0.2583,-0.2583,0,0,0,0,0,0,0,-0.2435,-0.2437,-0.2448,-0.2468,-0.2473,-0.249,-0.2495,-0.2484,-0.2526,-0.2521,-0.2526,-0.253,-0.256,-0.2562,-0.2563,-0.2545,-0.2584,-0.2583,-0.2583,-0.2583,-0.2492,-0.249,0,0,0,0,0,0,-0.2428,-0.2435,-0.2447,-0.2449,-0.2461,-0.2489,-0.2494,-0.2494,-0.2526,-0.2533,-0.2528,-0.2533,-0.2562,-0.2564,-0.2565,-0.2516,-0.2583,-0.2583,-0.2583,-0.2494,-0.2492,-0.2489,0,0,0,0,0,0,-0.2427,-0.2428,-0.2445,-0.2444,-0.2447,-0.2487,-0.2486,-0.2493,-0.2496,-0.2532,-0.2539,-0.2523,-0.2564,-0.2566,-0.2547,-0.2519,-0.2583,-0.2582,-0.2497,-0.2493,-0.2491,-0.2418,0,0,0,0,0,0,-0.2426,-0.2428,-0.2412,-0.2443,-0.2447,-0.2427,-0.2484,-0.2493,-0.2495,-0.2502,-0.2529,-0.2535,-0.2565,-0.2547,-0.2546,-0.2519,-0.2582,-0.25,-0.2495,-0.2492,-0.2423,-0.2412,-0.2403,0,0,0,0,0,-0.2426,-0.2389,-0.241,-0.2411,-0.2428,-0.2425,-0.2428,-0.2464,-0.2493,-0.2477,-0.25,-0.2534,-0.2521,-0.2545,-0.2544,-0.2516,-0.2501,-0.2497,-0.2492,-0.2427,-0.2414,-0.2404,0,0,0,0,0,0,-0.2352,-0.2394,-0.2418,-0.239,-0.2404,-0.2437,-0.2418,-0.2449,-0.2454,-0.246,-0.2504,-0.2509,-0.2485,-0.2499,-0.2524,-0.2476,-0.2517,-0.2512,-0.2468,-0.2456,-0.2447,-0.2444,-0.2582,0,0,0,0,0,-0.2333,-0.2328,-0.2364,-0.2336,-0.2341,-0.2378,-0.2378,-0.2405,-0.2421,-0.2427,-0.2448,-0.2461,-0.2461,-0.2459,-0.246,-0.2425,-0.2432,-0.2406,-0.2396,-0.2388,-0.2383,-0.2367,-0.2356,-0.2473,-0.2474,-0.2474,0,0,-0.2292,-0.2314,-0.2308,-0.2322,-0.2335,-0.2329,-0.2383,-0.2373,-0.2369,-0.2425,-0.2409,-0.2425,-0.2443,-0.2416,-0.2405,-0.2427,-0.2352,-0.2382,-0.2375,-0.2375,-0.236,-0.2349,-0.2339,-0.247,-0.2471,-0.2471,0,0,-0.2216,-0.2232,-0.2211,-0.2224,-0.2244,-0.2269,-0.2264,-0.2293,-0.2306,-0.2291,-0.2333,-0.2328,-0.2325,-0.2337,-0.2342,-0.227,-0.2302,-0.2269,-0.2218,-0.2202,-0.2192,-0.2184,-0.216,-0.215,-0.2264,-0.2263,-0.2263,0,-0.2163,-0.2156,-0.2196,-0.2184,-0.2189,-0.224,-0.2219,-0.2229,-0.2248,-0.225,-0.2274,-0.2272,-0.2288,-0.2265,-0.2247,-0.2249,-0.2245,-0.2266,-0.2191,-0.2183,-0.2176,-0.2153,-0.2144,-0.2259,-0.226,-0.226,-0.2261,0,-0.209,-0.2084,-0.2065,-0.2083,-0.2086,-0.2069,-0.2106,-0.2103,-0.213,-0.2152,-0.2136,-0.2156,-0.2163,-0.2159,-0.2184,-0.214,-0.2153,-0.2183,-0.2225,-0.216,-0.2139,-0.2131,-0.2254,-0.2255,-0.2256,-0.2257,0,0,-0.1969,-0.201,-0.2002,-0.2012,-0.2038,-0.2034,-0.202,-0.2027,-0.2024,-0.2036,-0.2025,-0.2022,-0.205,-0.2056,-0.2083,-0.2068,-0.2011,-0.21,-0.2101,-0.2084,-0.1964,-0.1942,-0.1931,-0.2032,-0.2031,-0.2029,-0.1963,0,-0.1899,-0.1878,-0.1914,-0.1884,-0.188,-0.1928,-0.1916,-0.193,-0.1951,-0.1949,-0.1971,-0.1969,-0.2006,-0.201,-0.1998,-0.202,-0.1988,-0.2026,-0.2023,-0.2022,-0.2018,-0.192,-0.1896,-0.1833,-0.1955,-0.1954,-0.1953,0,-0.1815,-0.1823,-0.1793,-0.1823,-0.1822,-0.181,-0.182,-0.1818,-0.1835,-0.1851,-0.1858,-0.189,-0.1878,-0.1918,-0.1902,-0.1927,-0.1928,-0.1939,-0.1938,-0.194,-0.1984,-0.192,-0.1813,-0.1804,-0.194,-0.1941,-0.1942,0,-0.173,-0.1734,-0.1717,-0.1724,-0.1757,-0.1747,-0.1761,-0.178,-0.1783,-0.1791,-0.1793,-0.1799,-0.1802,-0.1806,-0.1839,-0.1866,-0.182,-0.1863,-0.1833,-0.1832,-0.1822,-0.1822,-0.1714,-0.182,-0.182,-0.182,-0.1821,0,-0.1649,-0.1629,-0.168,-0.167,-0.1649,-0.169,-0.1668,-0.1686,-0.1703,-0.1697,-0.1738,-0.1731,-0.1775,-0.1773,-0.1798,-0.1782,-0.1782,-0.1795,-0.1802,-0.1792,-0.179,-0.1794,-0.1799,-0.1818,-0.1818,-0.1819,-0.1819,0,-0.1552,-0.1585,-0.157,-0.1603,-0.1611,-0.1594,-0.1622,-0.1613,-0.1636,-0.1628,-0.1628,-0.1664,-0.1664,-0.1697,-0.1703,-0.172,-0.1693,-0.1708,-0.1687,-0.1692,-0.1661,-0.1664,-0.1553,-0.154,-0.1653,-0.1652,-0.1651,0,-0.1498,-0.1485,-0.1516,-0.1515,-0.1527,-0.1525,-0.1528,-0.1567,-0.1569,-0.1588,-0.1577,-0.158,-0.1585,-0.1582,-0.1608,-0.1613,-0.1629,-0.159,-0.163,-0.162,-0.163,-0.1631,-0.163,-0.1581,-0.158,-0.1579,-0.1578,0,-0.14,-0.1418,-0.1421,-0.1429,-0.1432,-0.1441,-0.1452,-0.1448,-0.1492,-0.1491,-0.1492,-0.1495,-0.1502,-0.1505,-0.1515,-0.1528,-0.156,-0.1565,-0.1558,-0.1548,-0.1537,-0.1544,-0.1665,-0.1567,-0.1568,-0.1569,-0.157,-0.157,-0.1324,-0.1314,-0.1335,-0.1338,-0.135,-0.136,-0.1354,-0.1377,-0.1378,-0.1388,-0.141,-0.1407,-0.1426,-0.1443,-0.1453,-0.1451,-0.1471,-0.1461,-0.1459,-0.1456,-0.145,-0.1537,-0.1453,-0.1453,-0.1453,-0.1454,-0.1454,0,-0.1229,-0.1245,-0.1247,-0.1262,-0.1263,-0.1294,-0.1308,-0.1307,-0.1304,-0.1319,-0.1323,-0.1324,-0.1327,-0.1354,-0.136,-0.1353,-0.1368,-0.1353,-0.1355,-0.1358,-0.1432,-0.1438,-0.1341,-0.1341,-0.1341,-0.1341,-0.1341,-0.1342,-0.118,-0.1166,-0.1185,-0.1177,-0.1194,-0.1192,-0.1197,-0.1206,-0.1218,-0.1218,-0.1221,-0.1239,-0.1258,-0.1266,-0.127,-0.1278,-0.1279,-0.1259,-0.1272,-0.1341,-0.1352,-0.1363,-0.1368,-0.1259,-0.1259,-0.1198,-0.1198,-0.1197]}]]